Location: Unspecified
(43.3830°N, 0.0000°E)
Time: 06:36:07
(UTC+00:00)

Transit 2A - Pass Details

Date: 17 June 2019
Orbit: 594 x 965 km, 66.7° (Epoch: 17 July)

Event Time Altitude Azimuth Distance (km) Brightness Sun altitude
Exits shadow 03:16:11 - 260° (W) 3,148 8.7 -9.6°
Reaches altitude 10° 03:17:45 10° 268° (W) 2,702 8.4 -9.4°
Maximum altitude 03:22:42 23° 320° (NW) 1,906 8.1 -8.8°
Drops below altitude 10° 03:27:35 10° 11° (N) 2,649 9.7 -8.1°
Sets 03:30:38 0° 26° (NNE) 3,551 10.9 -7.7°
